Time,TemperatureF,DewpointF,PressureIn,WindDirection,WindDirectionDegrees,WindSpeedMPH,WindSpeedGustMPH,Humidity,HourlyPrecipIn,Conditions,Clouds,dailyrainin,SoftwareType,DateUTC
2013-01-01 00:00:00,30.4,28.0,30.06,West,279,10.0,12.0,91,0.00,,,0.01,meteohub,2013-01-01 05:00:00,
2013-01-01 00:04:00,30.4,28.0,30.05,WNW,292,4.0,12.0,91,0.00,,,0.01,meteohub,2013-01-01 05:04:00,
2013-01-01 00:08:00,30.4,28.4,30.06,WNW,294,6.0,12.0,92,0.00,,,0.00,meteohub,2013-01-01 05:08:00,
2013-01-01 00:13:00,30.4,28.4,30.05,NW,304,7.0,12.0,92,0.00,,,0.00,meteohub,2013-01-01 05:13:00,
2013-01-01 00:18:00,30.4,28.4,30.05,West,277,7.0,14.0,92,0.00,,,0.00,meteohub,2013-01-01 05:18:00,
2013-01-01 00:24:00,30.4,28.4,30.05,NW,309,4.0,14.0,92,0.00,,,0.00,meteohub,2013-01-01 05:24:00,
2013-01-01 00:29:00,30.4,28.4,30.05,NW,312,4.0,14.0,92,0.00,,,0.00,meteohub,2013-01-01 05:29:00,
2013-01-01 00:34:00,30.4,28.4,30.04,NW,315,8.0,10.0,92,0.00,,,0.00,meteohub,2013-01-01 05:34:00,
2013-01-01 00:39:00,30.2,28.2,30.04,WNW,300,3.0,10.0,92,0.00,,,0.00,meteohub,2013-01-01 05:39:00,
2013-01-01 00:44:00,30.2,28.2,30.04,WNW,303,5.0,8.0,92,0.00,,,0.00,meteohub,2013-01-01 05:44:00,
2013-01-01 00:49:00,30.4,28.4,30.04,NW,306,9.0,9.0,92,0.00,,,0.00,meteohub,2013-01-01 05:49:00,
2013-01-01 00:54:00,30.4,28.4,30.04,WNW,303,4.0,10.0,92,0.00,,,0.00,meteohub,2013-01-01 05:54:00,
2013-01-01 00:59:00,30.4,28.4,30.05,NW,318,4.0,10.0,92,0.00,,,0.00,meteohub,2013-01-01 05:59:00,
2013-01-01 01:05:00,30.4,28.4,30.05,NW,309,4.0,10.0,92,0.00,,,0.00,meteohub,2013-01-01 06:05:00,
2013-01-01 01:10:00,30.4,28.4,30.05,NW,315,8.0,10.0,92,0.00,,,0.00,meteohub,2013-01-01 06:10:00,
2013-01-01 01:15:00,30.4,28.0,30.04,WNW,297,3.0,10.0,91,0.00,,,0.00,meteohub,2013-01-01 06:15:00,
2013-01-01 01:20:00,30.4,28.0,30.05,NW,321,4.0,11.0,91,0.00,,,0.00,meteohub,2013-01-01 06:20:00,
2013-01-01 01:25:00,30.4,28.0,30.05,NW,313,7.0,10.0,91,0.00,,,0.00,meteohub,2013-01-01 06:25:00,
2013-01-01 01:30:00,30.4,28.0,30.05,WNW,297,4.0,10.0,91,0.00,,,0.00,meteohub,2013-01-01 06:30:00,
2013-01-01 01:35:00,30.4,28.0,30.05,WNW,292,3.0,11.0,91,0.00,,,0.00,meteohub,2013-01-01 06:35:00,
2013-01-01 01:40:00,30.4,28.0,30.05,WNW,295,5.0,11.0,91,0.00,,,0.00,meteohub,2013-01-01 06:40:00,
2013-01-01 01:46:00,30.4,28.0,30.05,West,281,3.0,11.0,91,0.00,,,0.00,meteohub,2013-01-01 06:46:00,
2013-01-01 01:51:00,30.4,28.0,30.05,NW,311,3.0,10.0,91,0.00,,,0.00,meteohub,2013-01-01 06:51:00,
2013-01-01 01:56:00,30.4,28.0,30.05,WNW,292,4.0,10.0,91,0.00,,,0.00,meteohub,2013-01-01 06:56:00,
2013-01-01 02:01:00,30.4,28.0,30.04,NW,321,4.0,12.0,91,0.00,,,0.00,meteohub,2013-01-01 07:01:00,
2013-01-01 02:06:00,30.4,28.0,30.04,WNW,301,3.0,12.0,91,0.00,,,0.00,meteohub,2013-01-01 07:06:00,
2013-01-01 02:11:00,30.4,28.0,30.04,WNW,300,5.0,10.0,91,0.00,,,0.00,meteohub,2013-01-01 07:11:00,
2013-01-01 02:16:00,30.2,27.9,30.04,West,279,5.0,8.0,91,0.00,,,0.00,meteohub,2013-01-01 07:16:00,
2013-01-01 02:21:00,30.4,28.0,30.04,WNW,288,6.0,10.0,91,0.00,,,0.00,meteohub,2013-01-01 07:21:00,
2013-01-01 02:26:00,30.4,28.0,30.04,NW,310,3.0,10.0,91,0.00,,,0.00,meteohub,2013-01-01 07:26:00,
2013-01-01 02:31:00,30.4,28.0,30.04,NNW,339,3.0,10.0,91,0.00,,,0.00,meteohub,2013-01-01 07:31:00,
2013-01-01 02:37:00,30.2,27.9,30.05,North,355,2.0,10.0,91,0.00,,,0.00,meteohub,2013-01-01 07:37:00,
2013-01-01 02:42:00,30.2,27.9,30.05,NNW,336,3.0,8.0,91,0.00,,,0.00,meteohub,2013-01-01 07:42:00,
2013-01-01 02:47:00,30.0,27.7,30.05,NNE,29,2.0,6.0,91,0.00,,,0.00,meteohub,2013-01-01 07:47:00,
2013-01-01 02:52:00,30.0,27.5,30.06,NW,317,2.0,7.0,90,0.00,,,0.00,meteohub,2013-01-01 07:52:00,
2013-01-01 02:57:00,29.8,27.3,30.05,NNW,327,7.0,7.0,90,0.00,,,0.00,meteohub,2013-01-01 07:57:00,
2013-01-01 03:02:00,29.8,27.0,30.05,NNW,337,3.0,8.0,89,0.00,,,0.00,meteohub,2013-01-01 08:02:00,
2013-01-01 03:07:00,29.7,26.6,30.05,North,349,3.0,8.0,88,0.00,,,0.00,meteohub,2013-01-01 08:07:00,
2013-01-01 03:12:00,29.7,26.6,30.05,NNW,344,2.0,8.0,88,0.00,,,0.00,meteohub,2013-01-01 08:12:00,
2013-01-01 03:17:00,29.7,26.6,30.05,NNW,342,2.0,8.0,88,0.00,,,0.00,meteohub,2013-01-01 08:17:00,
2013-01-01 03:22:00,29.7,26.6,30.05,NNW,339,1.0,8.0,88,0.00,,,0.00,meteohub,2013-01-01 08:22:00,
2013-01-01 03:27:00,29.5,26.6,30.05,NNE,13,0.0,8.0,89,0.00,,,0.00,meteohub,2013-01-01 08:27:00,
2013-01-01 03:32:00,29.5,26.6,30.05,NNW,336,2.0,6.0,89,0.00,,,0.00,meteohub,2013-01-01 08:32:00,
2013-01-01 03:37:00,29.3,26.4,30.05,NE,40,1.0,4.0,89,0.00,,,0.00,meteohub,2013-01-01 08:37:00,
2013-01-01 03:42:00,29.1,26.1,30.05,NW,314,4.0,6.0,88,0.00,,,0.00,meteohub,2013-01-01 08:42:00,
2013-01-01 03:47:00,29.1,26.1,30.05,NW,324,2.0,6.0,88,0.00,,,0.00,meteohub,2013-01-01 08:47:00,
2013-01-01 03:52:00,28.9,26.1,30.06,North,355,0.0,6.0,89,0.00,,,0.00,meteohub,2013-01-01 08:52:00,
2013-01-01 03:57:00,28.9,26.1,30.05,NNW,340,1.0,5.0,89,0.00,,,0.00,meteohub,2013-01-01 08:57:00,
2013-01-01 04:02:00,28.9,26.1,30.05,NNW,340,1.0,4.0,89,0.00,,,0.00,meteohub,2013-01-01 09:02:00,
2013-01-01 04:07:00,28.8,26.2,30.05,NNW,335,1.0,4.0,90,0.00,,,0.00,meteohub,2013-01-01 09:07:00,
2013-01-01 04:12:00,28.8,25.9,30.05,NNW,338,2.0,4.0,89,0.00,,,0.00,meteohub,2013-01-01 09:12:00,
2013-01-01 04:17:00,28.8,25.9,30.05,NNW,342,2.0,4.0,89,0.00,,,0.00,meteohub,2013-01-01 09:17:00,
2013-01-01 04:22:00,28.6,26.1,30.04,NNE,19,2.0,6.0,90,0.00,,,0.00,meteohub,2013-01-01 09:22:00,
2013-01-01 04:27:00,28.6,26.1,30.05,NNW,338,1.0,6.0,90,0.00,,,0.00,meteohub,2013-01-01 09:27:00,
2013-01-01 04:32:00,28.4,25.9,30.05,NW,325,2.0,5.0,90,0.00,,,0.00,meteohub,2013-01-01 09:32:00,
2013-01-01 04:37:00,28.2,25.7,30.06,NNW,338,2.0,6.0,90,0.00,,,0.00,meteohub,2013-01-01 09:37:00,
2013-01-01 04:42:00,28.0,25.5,30.06,NNE,30,3.0,6.0,90,0.00,,,0.00,meteohub,2013-01-01 09:42:00,
2013-01-01 04:47:00,28.0,25.5,30.06,NW,321,1.0,6.0,90,0.00,,,0.00,meteohub,2013-01-01 09:47:00,
2013-01-01 04:52:00,28.0,25.5,30.06,NW,324,2.0,6.0,90,0.00,,,0.00,meteohub,2013-01-01 09:52:00,
2013-01-01 04:57:00,27.9,25.3,30.06,NW,311,2.0,6.0,90,0.00,,,0.00,meteohub,2013-01-01 09:57:00,
2013-01-01 05:02:00,27.9,25.5,30.06,NW,316,3.0,5.0,91,0.00,,,0.00,meteohub,2013-01-01 10:02:00,
2013-01-01 05:07:00,27.9,25.5,30.06,NW,315,2.0,5.0,91,0.00,,,0.00,meteohub,2013-01-01 10:07:00,
2013-01-01 05:12:00,27.9,25.5,30.06,NNW,328,1.0,5.0,91,0.00,,,0.00,meteohub,2013-01-01 10:12:00,
2013-01-01 05:17:00,27.7,25.3,30.06,NNW,328,1.0,5.0,91,0.00,,,0.00,meteohub,2013-01-01 10:17:00,
2013-01-01 05:22:00,27.7,25.3,30.06,NNW,328,1.0,4.0,91,0.00,,,0.00,meteohub,2013-01-01 10:22:00,
2013-01-01 05:27:00,27.7,25.7,30.06,NNW,328,1.0,3.0,92,0.00,,,0.00,meteohub,2013-01-01 10:27:00,
2013-01-01 05:32:00,27.7,25.7,30.05,NNW,328,2.0,3.0,92,0.00,,,0.00,meteohub,2013-01-01 10:32:00,
2013-01-01 05:37:00,27.7,25.7,30.05,NNW,328,2.0,3.0,92,0.00,,,0.00,meteohub,2013-01-01 10:37:00,
2013-01-01 05:42:00,27.5,25.5,30.06,NW,312,4.0,4.0,92,0.00,,,0.00,meteohub,2013-01-01 10:42:00,
2013-01-01 05:47:00,27.5,25.2,30.06,NNW,341,0.0,6.0,91,0.00,,,0.00,meteohub,2013-01-01 10:47:00,
2013-01-01 05:52:00,27.5,25.2,30.06,NW,321,1.0,6.0,91,0.00,,,0.00,meteohub,2013-01-01 10:52:00,
2013-01-01 05:57:00,27.5,25.0,30.06,NW,322,2.0,6.0,90,0.00,,,0.00,meteohub,2013-01-01 10:57:00,
2013-01-01 06:02:00,27.5,24.6,30.06,NNW,333,2.0,4.0,89,0.00,,,0.00,meteohub,2013-01-01 11:02:00,
2013-01-01 06:07:00,27.7,24.6,30.06,NNW,333,0.0,4.0,88,0.00,,,0.00,meteohub,2013-01-01 11:07:00,
2013-01-01 06:12:00,27.7,24.6,30.06,NNW,329,1.0,4.0,88,0.00,,,0.00,meteohub,2013-01-01 11:12:00,
2013-01-01 06:17:00,27.7,24.3,30.05,NNW,338,1.0,4.0,87,0.00,,,0.00,meteohub,2013-01-01 11:17:00,
2013-01-01 06:22:00,27.7,24.1,30.06,North,355,3.0,3.0,86,0.00,,,0.00,meteohub,2013-01-01 11:22:00,
2013-01-01 06:27:00,27.7,23.7,30.06,NW,323,3.0,7.0,85,0.00,,,0.00,meteohub,2013-01-01 11:27:00,
2013-01-01 06:33:00,27.9,23.9,30.06,NNW,334,1.0,7.0,85,0.00,,,0.00,meteohub,2013-01-01 11:33:00,
2013-01-01 06:38:00,27.7,23.7,30.06,WNW,303,3.0,7.0,85,0.00,,,0.00,meteohub,2013-01-01 11:38:00,
2013-01-01 06:43:00,27.7,23.7,30.06,NNW,344,2.0,6.0,85,0.00,,,0.00,meteohub,2013-01-01 11:43:00,
2013-01-01 06:48:00,27.7,23.7,30.07,NW,321,3.0,5.0,85,0.00,,,0.00,meteohub,2013-01-01 11:48:00,
2013-01-01 06:53:00,27.7,24.1,30.07,NW,326,2.0,6.0,86,0.00,,,0.00,meteohub,2013-01-01 11:53:00,
2013-01-01 06:58:00,27.7,24.3,30.07,NNW,338,2.0,6.0,87,0.00,,,0.00,meteohub,2013-01-01 11:58:00,
2013-01-01 07:03:00,27.3,24.3,30.07,NNE,24,2.0,6.0,88,0.00,,,0.00,meteohub,2013-01-01 12:03:00,
2013-01-01 07:09:00,27.1,24.1,30.07,NNE,33,5.0,6.0,88,0.00,,,0.00,meteohub,2013-01-01 12:09:00,
2013-01-01 07:14:00,27.0,23.9,30.07,North,5,1.0,6.0,88,0.00,,,0.00,meteohub,2013-01-01 12:14:00,
2013-01-01 07:19:00,26.8,23.7,30.07,NE,45,2.0,9.0,88,0.00,,,0.00,meteohub,2013-01-01 12:19:00,
2013-01-01 07:24:00,26.8,23.7,30.07,North,10,0.0,9.0,88,0.00,,,0.00,meteohub,2013-01-01 12:24:00,
2013-01-01 07:29:00,26.6,23.5,30.08,NNE,19,3.0,9.0,88,0.00,,,0.00,meteohub,2013-01-01 12:29:00,
2013-01-01 07:34:00,26.4,23.4,30.08,NNW,332,1.0,8.0,88,0.00,,,0.00,meteohub,2013-01-01 12:34:00,
2013-01-01 07:39:00,26.4,23.4,30.09,NNW,331,4.0,8.0,88,0.00,,,0.00,meteohub,2013-01-01 12:39:00,
2013-01-01 07:44:00,26.4,23.4,30.09,North,349,2.0,8.0,88,0.00,,,0.00,meteohub,2013-01-01 12:44:00,
2013-01-01 07:49:00,26.4,23.4,30.09,NNW,340,1.0,5.0,88,0.00,,,0.00,meteohub,2013-01-01 12:49:00,
2013-01-01 07:55:00,26.2,23.2,30.09,NE,41,1.0,6.0,88,0.00,,,0.00,meteohub,2013-01-01 12:55:00,
2013-01-01 08:00:00,26.2,22.8,30.09,NNW,342,3.0,6.0,87,0.00,,,0.00,meteohub,2013-01-01 13:00:00,
2013-01-01 08:05:00,26.1,23.0,30.10,NNW,338,4.0,6.0,88,0.00,,,0.00,meteohub,2013-01-01 13:05:00,
2013-01-01 08:10:00,26.1,23.0,30.09,North,351,1.0,6.0,88,0.00,,,0.00,meteohub,2013-01-01 13:10:00,
2013-01-01 08:15:00,25.9,22.8,30.09,NE,51,0.0,6.0,88,0.00,,,0.00,meteohub,2013-01-01 13:15:00,
2013-01-01 08:20:00,25.9,22.8,30.09,NE,42,2.0,6.0,88,0.00,,,0.00,meteohub,2013-01-01 13:20:00,
2013-01-01 08:25:00,25.9,22.8,30.09,NNW,330,1.0,9.0,88,0.00,,,0.00,meteohub,2013-01-01 13:25:00,
2013-01-01 08:30:00,25.7,22.6,30.09,NE,53,2.0,9.0,88,0.00,,,0.00,meteohub,2013-01-01 13:30:00,
2013-01-01 08:36:00,25.5,22.8,30.09,North,10,1.0,9.0,89,0.00,,,0.00,meteohub,2013-01-01 13:36:00,
2013-01-01 08:41:00,25.5,22.5,30.09,NNE,26,2.0,5.0,88,0.00,,,0.00,meteohub,2013-01-01 13:41:00,
2013-01-01 08:46:00,25.5,22.5,30.10,North,5,0.0,4.0,88,0.00,,,0.00,meteohub,2013-01-01 13:46:00,
2013-01-01 08:51:00,25.5,22.3,30.09,NNW,340,0.0,3.0,87,0.00,,,0.00,meteohub,2013-01-01 13:51:00,
2013-01-01 08:56:00,25.5,21.9,30.09,North,5,0.0,4.0,86,0.00,,,0.00,meteohub,2013-01-01 13:56:00,
2013-01-01 09:01:00,25.7,22.1,30.09,ENE,69,2.0,5.0,86,0.00,,,0.00,meteohub,2013-01-01 14:01:00,
2013-01-01 09:06:00,25.7,22.1,30.09,ENE,76,3.0,5.0,86,0.00,,,0.00,meteohub,2013-01-01 14:06:00,
2013-01-01 09:12:00,25.5,21.9,30.10,North,0,3.0,5.0,86,0.00,,,0.00,meteohub,2013-01-01 14:12:00,
2013-01-01 09:17:00,25.3,21.7,30.10,NE,49,3.0,8.0,86,0.00,,,0.00,meteohub,2013-01-01 14:17:00,
2013-01-01 09:22:00,25.3,22.1,30.11,NW,319,1.0,8.0,87,0.00,,,0.00,meteohub,2013-01-01 14:22:00,
2013-01-01 09:27:00,25.3,22.1,30.10,NNE,16,6.0,8.0,87,0.00,,,0.00,meteohub,2013-01-01 14:27:00,
2013-01-01 09:32:00,25.2,21.4,30.11,NNW,335,2.0,8.0,85,0.00,,,0.00,meteohub,2013-01-01 14:32:00,
2013-01-01 09:37:00,25.2,21.4,30.11,North,5,2.0,8.0,85,0.00,,,0.00,meteohub,2013-01-01 14:37:00,
2013-01-01 09:42:00,25.2,21.0,30.12,NNW,348,0.0,8.0,84,0.00,,,0.00,meteohub,2013-01-01 14:42:00,
2013-01-01 09:47:00,25.0,20.8,30.13,NNE,25,1.0,7.0,84,0.00,,,0.00,meteohub,2013-01-01 14:47:00,
2013-01-01 09:52:00,25.0,20.8,30.12,NE,52,3.0,6.0,84,0.00,,,0.00,meteohub,2013-01-01 14:52:00,
2013-01-01 09:57:00,25.0,20.8,30.13,NNW,338,4.0,8.0,84,0.00,,,0.00,meteohub,2013-01-01 14:57:00,
2013-01-01 10:02:00,25.0,20.5,30.13,ENE,59,5.0,8.0,83,0.00,,,0.00,meteohub,2013-01-01 15:02:00,
2013-01-01 10:07:00,24.8,20.3,30.13,ENE,59,3.0,8.0,83,0.00,,,0.00,meteohub,2013-01-01 15:07:00,
2013-01-01 10:12:00,24.8,20.3,30.13,NNW,336,1.0,8.0,83,0.00,,,0.00,meteohub,2013-01-01 15:12:00,
2013-01-01 10:17:00,24.8,20.1,30.13,NE,44,0.0,10.0,82,0.00,,,0.00,meteohub,2013-01-01 15:17:00,
2013-01-01 10:22:00,24.6,19.9,30.13,South,190,0.0,10.0,82,0.00,,,0.00,meteohub,2013-01-01 15:22:00,
2013-01-01 10:27:00,24.4,19.8,30.13,NNE,33,2.0,10.0,82,0.00,,,0.00,meteohub,2013-01-01 15:27:00,
2013-01-01 10:32:00,24.4,19.8,30.13,NNE,17,1.0,10.0,82,0.00,,,0.00,meteohub,2013-01-01 15:32:00,
2013-01-01 10:37:00,24.3,19.6,30.13,NNE,26,1.0,10.0,82,0.00,,,0.00,meteohub,2013-01-01 15:37:00,
2013-01-01 10:42:00,24.3,19.8,30.14,WNW,298,5.0,10.0,83,0.00,,,0.00,meteohub,2013-01-01 15:42:00,
2013-01-01 10:47:00,24.3,19.8,30.13,North,5,4.0,9.0,83,0.00,,,0.00,meteohub,2013-01-01 15:47:00,
2013-01-01 10:52:00,24.3,19.8,30.14,NNW,333,5.0,6.0,83,0.00,,,0.00,meteohub,2013-01-01 15:52:00,
2013-01-01 10:57:00,24.3,19.8,30.14,NW,312,3.0,8.0,83,0.00,,,0.00,meteohub,2013-01-01 15:57:00,
2013-01-01 11:02:00,24.3,19.8,30.14,NNE,29,1.0,8.0,83,0.00,,,0.00,meteohub,2013-01-01 16:02:00,
2013-01-01 11:07:00,24.3,19.8,30.13,ENE,61,1.0,8.0,83,0.00,,,0.00,meteohub,2013-01-01 16:07:00,
2013-01-01 11:12:00,24.3,19.8,30.14,NNE,24,3.0,6.0,83,0.00,,,0.00,meteohub,2013-01-01 16:12:00,
2013-01-01 11:17:00,24.1,19.8,30.14,NE,38,1.0,12.0,83,0.00,,,0.00,meteohub,2013-01-01 16:17:00,
2013-01-01 11:22:00,24.1,19.8,30.13,NE,55,3.0,12.0,83,0.00,,,0.00,meteohub,2013-01-01 16:22:00,
2013-01-01 11:27:00,23.9,19.2,30.12,NE,53,5.0,12.0,82,0.00,,,0.00,meteohub,2013-01-01 16:27:00,
2013-01-01 11:32:00,23.9,19.2,30.12,North,5,2.0,8.0,82,0.00,,,0.00,meteohub,2013-01-01 16:32:00,
2013-01-01 11:38:00,23.9,19.2,30.13,ENE,57,9.0,9.0,82,0.00,,,0.00,meteohub,2013-01-01 16:38:00,
2013-01-01 11:43:00,23.5,18.9,30.12,North,0,6.0,9.0,82,0.00,,,0.00,meteohub,2013-01-01 16:43:00,
2013-01-01 11:48:00,23.5,19.2,30.11,NE,49,4.0,9.0,83,0.00,,,0.00,meteohub,2013-01-01 16:48:00,
2013-01-01 11:53:00,23.5,19.2,30.11,North,355,2.0,9.0,83,0.00,,,0.00,meteohub,2013-01-01 16:53:00,
2013-01-01 11:58:00,23.5,19.2,30.10,NW,308,2.0,8.0,83,0.00,,,0.00,meteohub,2013-01-01 16:58:00,
2013-01-01 12:03:00,23.5,19.2,30.10,NE,51,2.0,8.0,83,0.00,,,0.00,meteohub,2013-01-01 17:03:00,
2013-01-01 12:08:00,23.5,18.9,30.10,NE,35,0.0,7.0,82,0.00,,,0.00,meteohub,2013-01-01 17:08:00,
2013-01-01 12:13:00,23.5,19.2,30.09,ENE,57,3.0,10.0,83,0.00,,,0.00,meteohub,2013-01-01 17:13:00,
2013-01-01 12:18:00,23.5,19.2,30.09,NNW,343,4.0,10.0,83,0.00,,,0.00,meteohub,2013-01-01 17:18:00,
2013-01-01 12:23:00,23.4,18.7,30.09,East,81,2.0,8.0,82,0.00,,,0.00,meteohub,2013-01-01 17:23:00,
2013-01-01 12:29:00,23.4,18.7,30.09,NW,317,4.0,7.0,82,0.00,,,0.00,meteohub,2013-01-01 17:29:00,
2013-01-01 12:34:00,23.4,18.7,30.09,NNW,335,5.0,7.0,82,0.00,,,0.00,meteohub,2013-01-01 17:34:00,
2013-01-01 12:39:00,23.2,18.1,30.09,NW,318,3.0,10.0,81,0.00,,,0.00,meteohub,2013-01-01 17:39:00,
2013-01-01 12:44:00,23.0,18.0,30.10,North,0,4.0,10.0,81,0.00,,,0.00,meteohub,2013-01-01 17:44:00,
2013-01-01 12:49:00,22.8,18.0,30.10,NW,320,7.0,8.0,81,0.00,,,0.00,meteohub,2013-01-01 17:49:00,
2013-01-01 12:54:00,22.8,17.6,30.10,NW,310,7.0,10.0,80,0.00,,,0.00,meteohub,2013-01-01 17:54:00,
2013-01-01 12:59:00,22.6,17.4,30.11,NNW,329,4.0,10.0,80,0.00,,,0.00,meteohub,2013-01-01 17:59:00,
2013-01-01 13:04:00,22.5,17.6,30.11,North,5,5.0,10.0,81,0.00,,,0.00,meteohub,2013-01-01 18:04:00,
2013-01-01 13:10:00,22.3,17.1,30.10,NNW,329,3.0,8.0,80,0.00,,,0.00,meteohub,2013-01-01 18:10:00,
2013-01-01 13:15:00,22.1,16.9,30.09,NE,44,3.0,8.0,80,0.00,,,0.00,meteohub,2013-01-01 18:15:00,
2013-01-01 13:20:00,21.9,16.7,30.09,NNW,344,4.0,8.0,80,0.00,,,0.00,meteohub,2013-01-01 18:20:00,
2013-01-01 13:25:00,21.9,17.1,30.08,NE,51,3.0,8.0,81,0.00,,,0.00,meteohub,2013-01-01 18:25:00,
2013-01-01 13:30:00,21.9,17.1,30.09,NNW,340,3.0,9.0,81,0.00,,,0.00,meteohub,2013-01-01 18:30:00,
2013-01-01 13:35:00,21.7,16.5,30.09,NNW,333,3.0,9.0,80,0.00,,,0.00,meteohub,2013-01-01 18:35:00,
2013-01-01 13:40:00,21.7,16.9,30.09,NNE,12,3.0,7.0,81,0.00,,,0.00,meteohub,2013-01-01 18:40:00,
2013-01-01 13:45:00,21.7,16.9,30.10,NW,311,3.0,8.0,81,0.00,,,0.00,meteohub,2013-01-01 18:45:00,
2013-01-01 13:50:00,21.7,16.9,30.10,NNW,342,5.0,8.0,81,0.00,,,0.00,meteohub,2013-01-01 18:50:00,
2013-01-01 13:55:00,21.7,16.9,30.11,NW,316,4.0,8.0,81,0.00,,,0.00,meteohub,2013-01-01 18:55:00,
2013-01-01 14:01:00,21.7,16.9,30.11,NNW,338,3.0,8.0,81,0.00,,,0.00,meteohub,2013-01-01 19:01:00,
2013-01-01 14:06:00,21.7,16.9,30.11,NNW,335,7.0,8.0,81,0.00,,,0.00,meteohub,2013-01-01 19:06:00,
2013-01-01 14:11:00,21.7,16.9,30.10,NW,326,6.0,10.0,81,0.00,,,0.00,meteohub,2013-01-01 19:11:00,
2013-01-01 14:16:00,21.7,16.9,30.10,NW,315,4.0,10.0,81,0.00,,,0.00,meteohub,2013-01-01 19:16:00,
2013-01-01 14:21:00,21.7,16.9,30.10,NW,319,3.0,10.0,81,0.00,,,0.00,meteohub,2013-01-01 19:21:00,
2013-01-01 14:26:00,21.7,16.5,30.09,NNE,19,5.0,10.0,80,0.00,,,0.00,meteohub,2013-01-01 19:26:00,
2013-01-01 14:31:00,21.7,16.5,30.09,NW,319,3.0,10.0,80,0.00,,,0.00,meteohub,2013-01-01 19:31:00,
2013-01-01 14:36:00,21.7,16.5,30.07,NNE,18,3.0,7.0,80,0.00,,,0.00,meteohub,2013-01-01 19:36:00,
2013-01-01 14:41:00,21.9,16.7,30.07,North,11,1.0,7.0,80,0.00,,,0.00,meteohub,2013-01-01 19:41:00,
2013-01-01 14:47:00,22.1,16.9,30.07,NW,323,2.0,7.0,80,0.00,,,0.00,meteohub,2013-01-01 19:47:00,
2013-01-01 14:52:00,22.1,16.5,30.08,NNW,329,4.0,5.0,79,0.00,,,0.00,meteohub,2013-01-01 19:52:00,
2013-01-01 14:57:00,22.1,16.5,30.09,WNW,297,2.0,7.0,79,0.00,,,0.00,meteohub,2013-01-01 19:57:00,
2013-01-01 15:02:00,22.1,16.3,30.09,NW,323,2.0,7.0,78,0.00,,,0.00,meteohub,2013-01-01 20:02:00,
2013-01-01 15:07:00,21.9,16.2,30.09,NW,317,2.0,7.0,78,0.00,,,0.00,meteohub,2013-01-01 20:07:00,
2013-01-01 15:12:00,21.9,16.3,30.09,NNW,336,2.0,6.0,79,0.00,,,0.00,meteohub,2013-01-01 20:12:00,
2013-01-01 15:17:00,21.9,16.3,30.09,North,5,5.0,7.0,79,0.00,,,0.00,meteohub,2013-01-01 20:17:00,
2013-01-01 15:22:00,21.9,16.3,30.09,NNW,328,3.0,7.0,79,0.00,,,0.00,meteohub,2013-01-01 20:22:00,
2013-01-01 15:27:00,21.9,16.3,30.10,NNW,327,2.0,7.0,79,0.00,,,0.00,meteohub,2013-01-01 20:27:00,
2013-01-01 15:32:00,21.7,16.5,30.10,NNW,340,0.0,7.0,80,0.00,,,0.00,meteohub,2013-01-01 20:32:00,
2013-01-01 15:37:00,21.7,16.5,30.11,NW,326,1.0,9.0,80,0.00,,,0.00,meteohub,2013-01-01 20:37:00,
2013-01-01 15:42:00,21.7,16.5,30.12,NNW,348,2.0,9.0,80,0.00,,,0.00,meteohub,2013-01-01 20:42:00,
2013-01-01 15:47:00,21.7,16.9,30.12,NNE,18,1.0,7.0,81,0.00,,,0.00,meteohub,2013-01-01 20:47:00,
2013-01-01 15:52:00,21.7,16.9,30.12,NW,323,2.0,6.0,81,0.00,,,0.00,meteohub,2013-01-01 20:52:00,
2013-01-01 15:57:00,21.7,16.9,30.12,NNW,348,2.0,7.0,81,0.00,,,0.00,meteohub,2013-01-01 20:57:00,
2013-01-01 16:02:00,21.7,16.9,30.12,NNW,327,2.0,7.0,81,0.00,,,0.00,meteohub,2013-01-01 21:02:00,
2013-01-01 16:07:00,21.7,16.9,30.12,NNW,333,2.0,7.0,81,0.00,,,0.00,meteohub,2013-01-01 21:07:00,
2013-01-01 16:12:00,21.6,16.7,30.12,NNW,334,2.0,5.0,81,0.00,,,0.00,meteohub,2013-01-01 21:12:00,
2013-01-01 16:17:00,21.6,16.7,30.12,NNW,342,2.0,5.0,81,0.00,,,0.00,meteohub,2013-01-01 21:17:00,
2013-01-01 16:22:00,21.6,16.7,30.12,North,0,2.0,5.0,81,0.00,,,0.00,meteohub,2013-01-01 21:22:00,
2013-01-01 16:27:00,21.6,16.7,30.12,NW,321,2.0,7.0,81,0.00,,,0.00,meteohub,2013-01-01 21:27:00,
2013-01-01 16:32:00,21.4,16.5,30.12,NNW,338,1.0,7.0,81,0.00,,,0.00,meteohub,2013-01-01 21:32:00,
2013-01-01 16:37:00,21.4,16.2,30.13,NNW,340,3.0,7.0,80,0.00,,,0.00,meteohub,2013-01-01 21:37:00,
2013-01-01 16:42:00,21.2,16.0,30.12,WNW,298,5.0,8.0,80,0.00,,,0.00,meteohub,2013-01-01 21:42:00,
2013-01-01 16:47:00,21.0,15.6,30.12,NNW,331,0.0,8.0,79,0.00,,,0.00,meteohub,2013-01-01 21:47:00,
2013-01-01 16:52:00,21.0,15.8,30.13,NW,319,2.0,8.0,80,0.00,,,0.00,meteohub,2013-01-01 21:52:00,
2013-01-01 16:57:00,21.0,15.8,30.13,NNW,339,4.0,6.0,80,0.00,,,0.00,meteohub,2013-01-01 21:57:00,
2013-01-01 17:02:00,21.0,15.8,30.13,NNW,328,2.0,6.0,80,0.00,,,0.00,meteohub,2013-01-01 22:02:00,
2013-01-01 17:07:00,20.8,15.6,30.13,NNW,331,3.0,6.0,80,0.00,,,0.00,meteohub,2013-01-01 22:07:00,
2013-01-01 17:12:00,20.8,15.6,30.13,North,349,4.0,6.0,80,0.00,,,0.00,meteohub,2013-01-01 22:12:00,
2013-01-01 17:17:00,20.8,15.4,30.13,NW,318,2.0,6.0,79,0.00,,,0.00,meteohub,2013-01-01 22:17:00,
2013-01-01 17:22:00,20.8,15.1,30.13,NNW,337,5.0,6.0,78,0.00,,,0.00,meteohub,2013-01-01 22:22:00,
2013-01-01 17:27:00,20.8,15.4,30.13,North,0,3.0,7.0,79,0.00,,,0.00,meteohub,2013-01-01 22:27:00,
2013-01-01 17:32:00,20.8,15.4,30.12,NW,317,3.0,7.0,79,0.00,,,0.00,meteohub,2013-01-01 22:32:00,
2013-01-01 17:37:00,20.8,15.1,30.13,NNW,343,2.0,6.0,78,0.00,,,0.00,meteohub,2013-01-01 22:37:00,
2013-01-01 17:42:00,20.8,15.1,30.13,NNW,344,3.0,6.0,78,0.00,,,0.00,meteohub,2013-01-01 22:42:00,
2013-01-01 17:47:00,20.7,14.9,30.13,NW,325,1.0,6.0,78,0.00,,,0.00,meteohub,2013-01-01 22:47:00,
2013-01-01 17:52:00,20.7,14.9,30.14,NNW,332,2.0,5.0,78,0.00,,,0.00,meteohub,2013-01-01 22:52:00,
2013-01-01 17:57:00,20.7,14.9,30.14,NNW,331,1.0,5.0,78,0.00,,,0.00,meteohub,2013-01-01 22:57:00,
2013-01-01 18:02:00,20.7,14.9,30.13,NNW,331,1.0,5.0,78,0.00,,,0.00,meteohub,2013-01-01 23:02:00,
2013-01-01 18:07:00,20.7,14.9,30.13,NW,318,2.0,4.0,78,0.00,,,0.00,meteohub,2013-01-01 23:07:00,
2013-01-01 18:12:00,20.5,14.7,30.13,NW,326,0.0,4.0,78,0.00,,,0.00,meteohub,2013-01-01 23:12:00,
2013-01-01 18:18:00,20.5,14.4,30.13,NW,325,2.0,5.0,77,0.00,,,0.00,meteohub,2013-01-01 23:18:00,
2013-01-01 18:23:00,20.5,14.4,30.13,NNW,330,4.0,5.0,77,0.00,,,0.00,meteohub,2013-01-01 23:23:00,
2013-01-01 18:28:00,20.5,14.7,30.13,NNW,329,0.0,5.0,78,0.00,,,0.00,meteohub,2013-01-01 23:28:00,
2013-01-01 18:33:00,20.5,14.7,30.13,NNW,337,1.0,4.0,78,0.00,,,0.00,meteohub,2013-01-01 23:33:00,
2013-01-01 18:38:00,20.5,14.7,30.14,NNW,327,2.0,4.0,78,0.00,,,0.00,meteohub,2013-01-01 23:38:00,
2013-01-01 18:43:00,20.5,14.4,30.14,NW,323,2.0,4.0,77,0.00,,,0.00,meteohub,2013-01-01 23:43:00,
2013-01-01 18:48:00,20.5,14.4,30.14,NW,305,1.0,4.0,77,0.00,,,0.00,meteohub,2013-01-01 23:48:00,
2013-01-01 18:53:00,20.5,14.4,30.14,NW,311,4.0,4.0,77,0.00,,,0.00,meteohub,2013-01-01 23:53:00,
2013-01-01 18:59:00,20.5,14.7,30.13,NW,311,1.0,4.0,78,0.00,,,0.00,meteohub,2013-01-01 23:59:00,
2013-01-01 19:04:00,20.5,14.7,30.13,NW,311,0.0,4.0,78,0.00,,,0.00,meteohub,2013-01-02 00:04:00,
2013-01-01 19:09:00,20.5,14.7,30.13,NW,311,3.0,4.0,78,0.00,,,0.00,meteohub,2013-01-02 00:09:00,
2013-01-01 19:14:00,20.5,14.7,30.14,NNW,330,2.0,3.0,78,0.00,,,0.00,meteohub,2013-01-02 00:14:00,
2013-01-01 19:19:00,20.3,14.5,30.14,NNW,336,1.0,6.0,78,0.00,,,0.00,meteohub,2013-01-02 00:19:00,
2013-01-01 19:24:00,20.3,14.5,30.13,NNW,336,0.0,6.0,78,0.00,,,0.00,meteohub,2013-01-02 00:24:00,
2013-01-01 19:29:00,20.1,14.4,30.13,NNW,336,0.0,5.0,78,0.00,,,0.00,meteohub,2013-01-02 00:29:00,
2013-01-01 19:34:00,20.1,14.4,30.13,NNW,336,1.0,3.0,78,0.00,,,0.00,meteohub,2013-01-02 00:34:00,
2013-01-01 19:40:00,20.1,14.4,30.13,NNW,336,2.0,2.0,78,0.00,,,0.00,meteohub,2013-01-02 00:40:00,
2013-01-01 19:45:00,20.1,14.4,30.13,NNW,336,0.0,2.0,78,0.00,,,0.00,meteohub,2013-01-02 00:45:00,
2013-01-01 19:50:00,20.1,14.7,30.13,NNW,336,0.0,2.0,79,0.00,,,0.00,meteohub,2013-01-02 00:50:00,
2013-01-01 19:55:00,20.1,14.4,30.13,NNW,336,0.0,2.0,78,0.00,,,0.00,meteohub,2013-01-02 00:55:00,
2013-01-01 20:00:00,20.1,14.4,30.14,NNW,336,0.0,2.0,78,0.00,,,0.00,meteohub,2013-01-02 01:00:00,
2013-01-01 20:05:00,20.1,14.7,30.13,NNW,336,0.0,2.0,79,0.00,,,0.00,meteohub,2013-01-02 01:05:00,
2013-01-01 20:11:00,19.9,14.5,30.13,NNW,336,0.0,1.0,79,0.00,,,0.00,meteohub,2013-01-02 01:11:00,
2013-01-01 20:16:00,19.9,14.7,30.13,NNW,336,0.0,0.0,80,0.00,,,0.00,meteohub,2013-01-02 01:16:00,
2013-01-01 20:21:00,19.9,14.5,30.13,NNW,336,0.0,0.0,79,0.00,,,0.00,meteohub,2013-01-02 01:21:00,
2013-01-01 20:26:00,19.8,14.4,30.13,NNW,336,0.0,1.0,79,0.00,,,0.00,meteohub,2013-01-02 01:26:00,
2013-01-01 20:32:00,19.8,14.4,30.13,NNW,336,1.0,1.0,79,0.00,,,0.00,meteohub,2013-01-02 01:32:00,
2013-01-01 20:37:00,19.8,14.4,30.14,NNW,336,1.0,2.0,79,0.00,,,0.00,meteohub,2013-01-02 01:37:00,
2013-01-01 20:42:00,19.8,14.4,30.14,NNW,336,0.0,2.0,79,0.00,,,0.00,meteohub,2013-01-02 01:42:00,
2013-01-01 20:47:00,19.8,14.4,30.14,NNW,336,1.0,2.0,79,0.00,,,0.00,meteohub,2013-01-02 01:47:00,
2013-01-01 20:52:00,19.8,14.4,30.14,NNW,336,0.0,2.0,79,0.00,,,0.00,meteohub,2013-01-02 01:52:00,
2013-01-01 20:57:00,19.8,14.5,30.14,NNW,336,2.0,2.0,80,0.00,,,0.00,meteohub,2013-01-02 01:57:00,
2013-01-01 21:02:00,19.8,14.5,30.14,West,261,0.0,2.0,80,0.00,,,0.00,meteohub,2013-01-02 02:02:00,
2013-01-01 21:08:00,19.8,14.5,30.13,West,261,3.0,4.0,80,0.00,,,0.00,meteohub,2013-01-02 02:08:00,
2013-01-01 21:13:00,19.8,14.5,30.14,West,277,2.0,4.0,80,0.00,,,0.00,meteohub,2013-01-02 02:13:00,
2013-01-01 21:18:00,19.9,14.7,30.14,West,277,1.0,4.0,80,0.00,,,0.00,meteohub,2013-01-02 02:18:00,
2013-01-01 21:23:00,19.9,14.5,30.14,WNW,298,2.0,4.0,79,0.00,,,0.00,meteohub,2013-01-02 02:23:00,
2013-01-01 21:28:00,19.9,14.2,30.14,NW,307,2.0,5.0,78,0.00,,,0.00,meteohub,2013-01-02 02:28:00,
2013-01-01 21:34:00,20.1,14.4,30.14,NW,307,2.0,7.0,78,0.00,,,0.00,meteohub,2013-01-02 02:34:00,
2013-01-01 21:39:00,20.1,14.0,30.14,NW,307,1.0,7.0,77,0.00,,,0.00,meteohub,2013-01-02 02:39:00,
2013-01-01 21:44:00,20.1,14.0,30.14,NW,307,0.0,7.0,77,0.00,,,0.00,meteohub,2013-01-02 02:44:00,
2013-01-01 21:49:00,20.1,14.0,30.14,NW,307,1.0,4.0,77,0.00,,,0.00,meteohub,2013-01-02 02:49:00,
2013-01-01 21:54:00,20.1,14.0,30.14,NW,307,0.0,3.0,77,0.00,,,0.00,meteohub,2013-01-02 02:54:00,
2013-01-01 22:00:00,20.1,14.0,30.14,NW,307,1.0,3.0,77,0.00,,,0.00,meteohub,2013-01-02 03:00:00,
2013-01-01 22:05:00,20.1,14.0,30.14,NW,307,0.0,3.0,77,0.00,,,0.00,meteohub,2013-01-02 03:05:00,
2013-01-01 22:10:00,20.1,14.0,30.13,WNW,286,2.0,3.0,77,0.00,,,0.00,meteohub,2013-01-02 03:10:00,
2013-01-01 22:15:00,20.1,14.4,30.13,WNW,286,2.0,4.0,78,0.00,,,0.00,meteohub,2013-01-02 03:15:00,
2013-01-01 22:20:00,20.1,14.4,30.13,WNW,286,1.0,4.0,78,0.00,,,0.00,meteohub,2013-01-02 03:20:00,
2013-01-01 22:25:00,20.1,14.4,30.14,West,277,3.0,3.0,78,0.00,,,0.00,meteohub,2013-01-02 03:25:00,
2013-01-01 22:31:00,20.1,14.4,30.14,West,277,1.0,4.0,78,0.00,,,0.00,meteohub,2013-01-02 03:31:00,
2013-01-01 22:36:00,20.1,14.4,30.14,West,277,1.0,4.0,78,0.00,,,0.00,meteohub,2013-01-02 03:36:00,
2013-01-01 22:41:00,20.1,14.4,30.14,WNW,284,1.0,4.0,78,0.00,,,0.00,meteohub,2013-01-02 03:41:00,
2013-01-01 22:46:00,20.1,14.7,30.14,WNW,283,3.0,4.0,79,0.00,,,0.00,meteohub,2013-01-02 03:46:00,
2013-01-01 22:51:00,20.1,14.7,30.14,WNW,282,3.0,4.0,79,0.00,,,0.00,meteohub,2013-01-02 03:51:00,
2013-01-01 22:56:00,20.3,14.5,30.14,NW,310,4.0,5.0,78,0.00,,,0.00,meteohub,2013-01-02 03:56:00,
2013-01-01 23:01:00,20.5,14.7,30.14,WNW,284,3.0,5.0,78,0.00,,,0.00,meteohub,2013-01-02 04:01:00,
2013-01-01 23:06:00,20.7,14.9,30.14,WNW,298,3.0,5.0,78,0.00,,,0.00,meteohub,2013-01-02 04:06:00,
2013-01-01 23:12:00,20.7,14.9,30.14,NW,309,2.0,5.0,78,0.00,,,0.00,meteohub,2013-01-02 04:12:00,
2013-01-01 23:17:00,20.7,14.9,30.14,WNW,288,2.0,5.0,78,0.00,,,0.00,meteohub,2013-01-02 04:17:00,
2013-01-01 23:22:00,20.7,14.9,30.14,West,281,3.0,5.0,78,0.00,,,0.00,meteohub,2013-01-02 04:22:00,
2013-01-01 23:27:00,20.5,15.1,30.14,WNW,298,3.0,6.0,79,0.00,,,0.00,meteohub,2013-01-02 04:27:00,
2013-01-01 23:32:00,20.5,15.1,30.14,NW,314,3.0,6.0,79,0.00,,,0.00,meteohub,2013-01-02 04:32:00,
2013-01-01 23:37:00,20.5,15.1,30.15,WNW,288,5.0,6.0,79,0.00,,,0.00,meteohub,2013-01-02 04:37:00,
2013-01-01 23:42:00,20.5,15.1,30.14,WNW,284,2.0,6.0,79,0.00,,,0.00,meteohub,2013-01-02 04:42:00,
2013-01-01 23:47:00,20.5,15.3,30.14,WNW,282,2.0,6.0,80,0.00,,,0.00,meteohub,2013-01-02 04:47:00,
2013-01-01 23:52:00,20.5,15.3,30.14,WNW,293,4.0,6.0,80,0.00,,,0.00,meteohub,2013-01-02 04:52:00,
2013-01-01 23:57:00,20.5,15.3,30.14,WNW,291,2.0,5.0,80,0.00,,,0.00,meteohub,2013-01-02 04:57:00,